Theta_e
290 286 286 289 288 287 286 284 284 285 289 287 288 287 286 287 286 284 284 285 286 286 288 288 288 288 289 289 290 290 291 292 295 295 298 296 294 295 294 294 294 294 295 298
287 284 290 289 289 287 285 283 283 286 289 288 287 286 285 286 285 285 285 284 285 285 286 287 287 287 287 287 288 289 290 290 292 293 292 291 291 290 290 290 289 290 290 291
286 289 292 290 287 286 284 283 283 285 286 285 283 283 283 285 285 286 285 285 285 284 284 284 284 284 284 284 285 287 288 288 289 290 290 289 288 286 285 285 286 286 286 287
287 291 291 287 287 288 283 288 288 286 284 281 284 278 281 283 282 283 283 283 283 283 284 284 283 283 282 282 284 285 286 286 286 287 286 284 283 281 282 283 284 285 285 285
289 288 287 287 288 290 287 289 287 284 282 280 280 278 280 282 280 281 282 283 283 283 283 282 282 283 282 282 281 283 284 284 284 284 284 283 282 282 281 282 282 283 284 284
290 290 290 290 288 290 289 286 285 282 281 276 281 281 280 280 282 282 283 283 283 283 282 282 282 282 281 281 281 281 283 283 283 283 283 282 281 281 281 281 281 281 282 283
286 287 287 289 286 286 286 284 279 276 275 277 280 279 282 284 284 285 283 282 282 282 281 281 280 280 281 280 280 281 281 281 282 282 282 281 281 280 280 280 280 280 281 281
282 282 287 289 287 285 284 284 279 271 272 276 280 278 283 282 283 286 285 284 282 281 282 281 281 281 281 281 280 281 281 281 281 282 282 282 283 282 282 281 281 281 281 283
282 284 286 287 288 288 283 281 284 278 275 272 279 281 281 281 280 282 282 281 281 281 281 281 281 281 280 281 280 281 281 281 281 281 281 281 282 282 281 281 281 281 282 283
288 283 286 286 288 286 285 287 281 278 270 267 277 278 279 279 279 280 280 281 281 281 281 281 281 281 281 281 281 281 281 281 281 281 281 281 280 280 280 280 279 280 279 280
289 287 283 286 284 283 283 282 282 282 277 272 269 276 282 283 282 281 281 282 282 281 281 281 281 281 281 281 280 280 280 281 281 281 281 280 280 280 280 279 279 279 280 280
291 284 277 282 283 285 284 283 284 281 276 277 276 280 285 285 284 284 283 283 282 282 281 280 281 280 280 280 279 280 280 280 280 280 280 279 279 279 279 278 279 279 279 279
290 284 274 279 282 283 283 284 284 282 280 279 275 278 283 284 283 284 284 284 282 281 280 280 280 280 279 279 279 279 278 279 279 279 279 279 278 278 278 278 278 278 278 277
294 285 281 281 281 283 281 283 283 283 278 280 281 283 281 283 283 282 283 283 282 281 280 280 279 279 279 279 278 278 278 278 278 278 278 278 277 277 277 277 277 277 276 276
291 285 281 280 281 282 281 281 282 281 284 280 284 282 284 284 284 284 284 282 281 279 278 279 279 277 277 277 277 277 277 277 277 277 277 276 276 276 275 275 275 274 273 273
285 283 278 275 280 280 279 281 281 284 284 283 280 281 283 285 283 281 282 282 281 280 279 279 279 278 278 278 278 278 276 277 277 275 275 275 275 274 273 273 272 271 271 271
283 279 279 279 276 276 277 281 282 281 281 282 279 283 279 279 281 281 280 280 280 280 279 278 278 278 279 278 278 276 276 276 275 274 273 273 272 270 270 270 270 269 268 268
280 278 277 274 271 271 279 274 278 282 280 280 276 273 277 278 279 277 278 279 279 278 278 278 278 277 278 277 276 276 275 274 273 271 269 270 269 268 268 268 267 266 266 266
280 280 272 272 269 274 277 273 273 274 274 275 277 276 275 275 274 274 277 276 278 277 278 278 278 277 276 275 274 273 272 272 271 270 270 268 267 265 266 263 264 265 264 264
280 280 281 267 269 269 274 272 275 276 268 271 276 274 273 274 270 273 276 278 278 278 278 278 278 277 275 273 272 271 270 269 268 269 268 267 266 261 261 263 262 263 262 263
273 274 277 275 272 272 273 274 275 269 273 269 272 275 274 273 275 277 277 277 278 278 278 277 276 276 273 271 270 269 268 267 268 266 266 265 264 261 260 260 261 260 260 261
272 272 266 270 271 270 274 274 273 276 275 273 275 275 275 277 277 277 277 277 277 277 276 276 273 272 270 270 268 267 266 267 265 264 263 260 257 258 260 255 258 258 258 258
269 273 271 274 273 274 276 277 279 279 276 277 277 277 278 277 277 277 276 276 276 275 274 272 271 269 268 267 266 265 265 265 264 258 255 254 256 258 258 255 257 258 258 258
270 273 270 271 272 275 277 278 279 279 278 279 279 278 277 277 277 276 275 275 275 273 272 269 268 267 266 264 266 263 263 263 253 251 254 256 255 256 257 259 259 258 257 258
273 272 269 269 273 275 277 277 278 278 278 277 276 277 277 277 275 276 275 274 273 272 270 269 268 267 265 264 262 259 260 257 255 253 256 256 256 255 257 259 259 260 261 262
273 271 270 268 275 275 276 278 279 278 278 278 277 275 275 276 276 275 274 273 272 270 268 267 265 264 262 261 260 256 253 253 251 255 257 256 257 257 258 258 258 263 266 268
Wind_Speed
2 4 9 12 10 3 4 5 6 4 2 1 7 6 6 5 8 7 7 7 8 10 7 9 10 11 11 13 14 15 14 13 9 6 4 8 9 9 11 11 15 15 14 15
4 6 11 4 5 5 2 2 6 5 4 5 5 4 3 5 4 4 5 6 6 4 8 10 11 12 13 13 14 14 13 13 11 7 5 5 4 8 8 9 12 14 14 14
8 6 6 6 5 6 5 7 4 7 3 1 3 5 4 4 6 7 6 4 4 5 5 7 9 10 11 14 12 11 13 13 12 10 6 5 5 6 8 10 9 12 14 14
6 4 6 4 6 7 5 8 5 3 3 4 1 6 3 5 4 4 4 4 4 5 5 5 6 9 9 8 6 11 13 13 12 11 13 16 10 10 4 4 5 8 11 12
7 6 5 6 6 7 6 5 5 3 3 2 3 2 4 6 5 6 6 6 5 4 4 5 6 6 5 6 7 7 11 13 12 12 10 10 11 6 3 4 8 7 8 10
4 1 6 7 2 5 8 6 6 4 3 1 7 7 4 6 6 7 6 7 7 6 5 4 4 4 5 5 7 7 11 11 10 10 11 11 10 7 8 8 7 6 4 6
1 4 3 3 6 2 4 6 1 4 1 6 1 2 8 6 4 14 17 12 9 8 7 6 6 5 4 5 6 6 8 8 7 8 8 7 7 7 8 6 4 5 4 4
8 4 10 6 6 8 6 7 7 7 4 4 1 7 6 1 5 7 12 12 9 8 7 8 7 6 6 6 7 7 7 8 6 7 7 6 6 4 4 5 4 4 3 3
6 3 1 3 3 4 4 4 3 8 3 3 5 5 1 3 2 6 13 10 11 9 8 8 7 6 6 6 6 7 7 7 6 6 5 6 5 6 4 5 4 3 3 4
6 3 1 3 3 4 5 6 4 3 2 5 4 6 6 6 10 9 12 13 12 9 8 8 7 7 5 5 5 5 6 7 6 5 4 4 4 5 4 3 4 3 2 2
6 4 2 4 7 10 3 3 4 4 5 6 2 7 6 9 16 19 16 15 14 13 11 9 7 7 7 5 5 5 5 6 5 3 3 6 6 6 6 6 6 6 7 9
7 6 5 7 1 1 2 7 7 7 6 3 3 13 3 3 12 16 17 16 11 11 11 9 9 8 7 7 7 7 5 3 2 2 2 3 5 6 7 7 7 7 7 7
9 2 3 7 2 1 5 6 4 4 4 12 6 10 4 4 8 11 12 13 10 10 9 8 7 8 7 7 6 4 3 3 1 1 2 3 4 4 4 4 5 5 5 5
6 5 9 13 7 6 6 6 6 6 7 7 18 15 4 4 7 8 10 8 10 11 12 11 8 8 7 7 7 6 5 3 3 2 2 3 3 3 4 4 5 4 5 6
6 6 4 2 3 2 3 6 11 13 16 13 14 14 6 11 12 12 10 6 7 8 10 12 12 8 8 7 6 5 4 4 4 5 4 3 3 3 3 4 4 5 6 7
2 5 4 3 2 3 4 11 8 15 10 8 1 13 6 7 5 6 10 10 8 9 12 11 10 9 8 8 7 6 6 5 5 4 4 3 3 4 4 5 6 7 7 8
6 7 5 9 4 3 8 16 16 7 6 9 13 11 5 6 8 10 10 9 9 11 10 11 12 9 7 7 6 7 6 5 5 4 4 4 4 4 5 6 7 8 9 9
6 5 2 3 3 9 5 3 1 12 4 6 1 4 7 6 5 2 5 9 8 8 9 8 7 6 5 4 4 6 5 5 5 4 4 4 3 4 6 6 8 8 8 10
2 5 4 4 5 8 4 5 7 8 10 9 10 7 4 3 3 4 4 3 6 8 7 7 7 5 6 7 6 6 5 5 4 3 3 3 2 3 6 7 8 8 9 9
3 2 6 4 5 9 5 3 6 5 7 8 9 7 8 6 3 5 6 6 7 8 7 7 6 5 7 6 6 6 5 4 3 3 2 2 2 2 5 7 8 7 7 10
4 1 11 9 7 8 5 5 4 7 8 3 7 7 9 6 5 4 6 6 6 7 8 6 6 7 7 7 6 5 4 3 3 3 1 1 1 3 5 6 7 8 9 10
9 9 5 2 3 12 8 5 9 7 0 7 6 7 8 8 5 6 8 9 10 9 7 7 7 7 7 7 6 5 4 4 3 2 0 2 2 5 5 5 7 7 8 9
3 8 9 12 8 1 12 4 6 6 7 6 7 7 9 8 8 8 7 9 10 9 6 5 8 8 5 6 5 5 4 3 3 2 3 3 4 5 6 5 9 6 6 7
5 2 3 4 3 4 10 5 3 6 7 6 7 9 9 9 9 8 7 7 6 6 8 6 8 8 7 5 5 4 4 4 4 1 4 4 3 5 5 6 6 6 6 7
4 7 6 1 3 1 7 8 8 9 4 4 3 6 10 9 5 8 8 8 7 7 6 9 10 8 7 7 6 5 4 5 2 2 3 4 4 5 6 6 6 7 8 9
6 7 5 6 8 7 6 10 9 9 9 10 10 6 6 8 10 7 7 6 7 9 8 8 7 7 6 6 6 4 4 5 3 2 3 3 4 4 5 6 8 14 16 18
Wind_Direction
44 123 205 201 200 170 143 182 213 248 248 39 249 259 22 42 60 61 53 45 43 36 7 22 18 15 20 31 37 38 40 25 36 40 48 54 57 48 48 41 36 38 33 32
57 225 228 141 167 198 165 180 250 282 268 166 278 237 79 47 54 84 93 70 53 42 30 22 20 24 27 27 29 36 43 44 48 49 46 59 67 62 63 49 43 38 39 38
178 212 145 172 179 178 193 205 199 225 343 296 332 279 178 62 93 84 65 81 69 65 47 17 24 25 29 31 24 36 45 47 46 51 73 71 69 60 48 33 39 33 37 36
226 252 181 169 208 147 216 198 185 185 115 230 66 275 212 153 126 91 103 99 94 72 59 47 34 42 35 20 16 43 53 51 48 52 71 73 75 75 47 64 45 41 40 44
233 173 182 195 199 169 221 120 145 132 136 40 290 342 249 132 191 180 181 170 152 123 106 84 64 60 45 32 33 44 58 57 53 57 64 77 80 75 60 48 53 34 37 39
231 272 163 197 115 165 144 81 58 59 92 286 229 186 233 193 192 170 184 182 173 160 136 117 97 84 74 49 50 49 70 60 54 63 60 70 75 68 64 47 44 27 15 28
214 216 181 158 92 60 98 98 315 352 1 229 325 172 248 190 177 179 178 183 183 170 163 160 143 129 103 86 79 81 82 74 67 76 76 80 84 81 78 68 54 40 26 17
166 220 164 188 187 170 179 163 157 209 208 258 353 233 261 288 299 200 168 174 169 171 179 181 172 158 142 123 103 95 90 92 87 84 85 84 81 75 75 69 62 49 37 12
151 266 99 127 133 129 187 185 175 99 51 34 224 282 212 114 66 136 163 168 186 185 186 181 172 165 150 136 129 126 114 106 98 103 99 87 84 88 90 77 69 55 35 5
208 119 155 137 108 44 155 162 87 18 191 255 272 267 235 202 201 185 180 191 196 190 185 178 178 173 164 154 145 138 131 126 130 123 123 125 113 83 77 71 44 31 329 340
149 139 215 122 207 170 141 187 68 126 143 177 262 259 213 203 186 185 189 198 198 193 186 182 179 175 171 171 171 170 152 144 135 116 70 47 32 25 18 20 10 4 358 360
191 134 169 189 144 45 183 192 166 180 219 234 164 259 77 229 180 182 194 202 196 190 183 177 175 173 176 184 188 191 169 116 73 47 53 42 27 18 11 1 355 355 344 338
181 175 73 352 357 321 203 196 164 103 72 214 167 253 44 87 154 191 197 204 191 177 179 175 173 180 189 198 198 193 190 197 153 53 38 30 30 22 357 336 332 330 321 315
125 145 175 215 190 136 184 196 187 165 212 223 232 260 171 194 198 196 212 198 184 181 184 186 182 190 193 197 196 201 210 202 182 131 115 100 68 11 350 345 346 340 333 320
154 200 174 130 143 155 220 199 192 203 226 215 255 227 201 197 206 209 206 171 175 183 181 190 191 188 197 200 202 200 195 153 125 120 112 76 44 33 10 2 348 334 328 328
325 186 115 254 57 50 273 245 202 221 237 252 242 257 157 216 146 161 193 181 190 198 203 194 186 190 197 201 201 191 158 142 128 121 92 57 53 34 7 349 340 327 326 323
173 132 135 240 113 109 270 242 210 188 181 178 213 238 169 209 214 207 201 184 192 210 192 186 189 192 200 199 181 173 150 134 119 95 65 62 48 15 347 334 326 327 326 322
150 114 93 132 77 229 249 24 54 208 227 204 273 232 197 214 228 202 168 188 203 186 184 176 174 189 183 140 125 124 130 119 106 95 98 76 38 351 335 328 325 322 320 317
14 131 136 171 210 313 260 194 160 161 252 192 206 217 195 126 52 301 207 193 194 176 160 177 178 164 148 148 138 132 133 126 107 99 95 62 23 336 327 316 315 316 310 306
77 14 188 132 203 231 268 191 161 115 278 214 195 174 158 140 154 233 187 177 180 176 167 164 158 138 144 146 139 137 143 119 107 100 42 7 338 307 307 305 305 300 294 293
121 76 213 210 228 278 202 175 187 114 254 174 161 162 157 187 188 188 150 181 184 173 171 149 161 169 156 141 135 137 139 148 133 101 52 312 339 308 288 290 292 293 290 293
154 166 199 126 224 260 157 61 165 206 174 165 177 173 176 204 158 181 191 184 170 173 167 167 156 157 145 139 138 149 171 140 110 94 344 306 296 299 299 288 291 285 288 292
247 187 179 186 206 231 192 171 199 175 155 199 168 178 187 189 195 194 197 185 185 185 174 154 159 148 146 145 141 157 161 141 135 84 295 290 300 294 287 282 288 294 286 286
257 154 161 95 212 212 208 233 239 202 206 181 196 183 173 193 200 197 200 201 194 179 180 154 153 171 170 161 153 145 149 135 117 235 281 283 270 284 268 274 279 281 280 285
208 136 147 285 278 348 258 233 221 224 225 193 196 202 212 193 198 193 199 205 195 181 164 170 179 180 176 164 166 160 147 131 168 228 279 276 269 264 282 271 276 275 271 276
193 156 162 207 202 174 210 213 209 203 211 214 207 225 221 193 215 185 216 203 172 179 161 172 170 157 163 164 172 168 152 150 160 245 263 250 279 280 282 288 297 295 300 306